Change the Weather History Date:

Tuesday, January 1, 2013

  Actual Average (LHBP) Record (LHBP)
Temperature  
Mean Temperature 24 °F -  
Max Temperature 26 °F 34 °F 48 °F (2007)
Min Temperature 23 °F 23 °F 5 °F (1997)
Degree Days  
Heating Degree Days 40    
Moisture  
Dew Point 24 °F    
Average Humidity 94    
Maximum Humidity 100    
Minimum Humidity 93    
Precipitation  
Precipitation 0.00 in - - ()
Sea Level Pressure  
Sea Level Pressure 30.12 in    
Wind  
Wind Speed 4 mph ()    
Max Wind Speed 9 mph    
Max Gust Speed -    
Visibility 0.4 miles    
Events Fog    
Averages and records for this station are not official NWS values.
T = Trace of Precipitation, MM = Missing Value Source: Averaged Metar Reports

Daily Weather History Graph

Daily Weather History Graph

Search for Another Location

Airport or City:

Trip Planner

Search our weather history database for the weather conditions in past years. The results will help you decide how hot, cold, wet, or windy it might be!

Date:

Astronomy

Jan. 01, 2013 Rise Set
Actual Time 7:25 AM CET 4:00 PM CET
Civil Twilight 6:50 AM CET 4:35 PM CET
Nautical Twilight 6:11 AM CET 5:14 PM CET
Astronomical Twilight 5:34 AM CET 5:51 PM CET
Moon 8:30 PM CET (1/1) 9:12 AM CET (1/1)
Length of Visible Light 9h 45m
Length of Day
8h 34m
Waning Gibbous, 85% of the Moon is Illuminated
Jan 1
Waning Gibbous
Jan 5
Last Quarter
Jan 11
New
Jan 19
First Quarter
Jan 27
Full

Hourly Weather History & Observations

Time (CET) Temp. Windchill Dew Point Humidity Pressure Visibility Wind Dir Wind Speed Gust Speed Precip Events Conditions
12:15 AM 26.6 °F 21.3 °F 24.8 °F 93% 30.24 in 0.1 mi SE 4.5 mph - N/A Fog Light Freezing Fog
12:45 AM 26.6 °F 21.3 °F 24.8 °F 93% 30.21 in 0.1 mi SSE 4.5 mph - N/A Fog Light Freezing Fog
1:15 AM 24.8 °F 19.2 °F 23.0 °F 93% 30.21 in 0.1 mi SE 4.5 mph - N/A Fog Light Freezing Fog
2:15 AM 24.8 °F 17.1 °F 23.0 °F 93% 30.21 in 0.1 mi SSE 6.7 mph - N/A Fog Light Freezing Fog
2:45 AM 24.8 °F 15.5 °F 23.0 °F 93% 30.18 in 0.1 mi SSE 8.9 mph - N/A Fog Light Freezing Fog
3:15 AM 23.0 °F 13.2 °F 21.2 °F 93% 30.18 in 0.1 mi SSE 8.9 mph - N/A Fog Light Freezing Fog
3:45 AM 24.8 °F 17.1 °F 23.0 °F 93% 30.18 in 0.1 mi SSE 6.7 mph - N/A Fog Light Freezing Fog
4:15 AM 24.8 °F 19.2 °F 23.0 °F 93% 30.18 in 0.1 mi SE 4.5 mph - N/A Fog Light Freezing Fog
4:45 AM 24.8 °F 17.1 °F 23.0 °F 93% 30.15 in 0.1 mi SE 6.7 mph - N/A Fog Light Freezing Fog
5:15 AM 23.0 °F 17.1 °F 21.2 °F 93% 30.15 in 0.1 mi SSE 4.5 mph - N/A Fog Light Freezing Fog
5:45 AM - - - N/A% - 1.9 mi SSE 4.5 mph - N/A Fog Light Freezing Fog
6:15 AM 23.0 °F 17.1 °F 21.2 °F 93% 30.15 in 0.2 mi ESE 4.5 mph - N/A Fog Light Freezing Fog
6:45 AM 23.0 °F 17.1 °F 21.2 °F 93% 30.15 in 0.2 mi ESE 4.5 mph - N/A Fog Light Freezing Fog
7:15 AM 24.8 °F 17.1 °F 23.0 °F 93% 30.15 in 0.2 mi SE 6.7 mph - N/A Fog Light Freezing Fog
7:45 AM 23.0 °F 17.1 °F 21.2 °F 93% 30.15 in 0.2 mi SE 4.5 mph - N/A Fog Light Freezing Fog
8:15 AM 24.8 °F 19.2 °F 23.0 °F 93% 30.15 in 0.4 mi ESE 4.5 mph - N/A Fog Light Freezing Fog
8:45 AM - - - N/A% - 1.9 mi SE 4.5 mph - N/A Fog Light Freezing Fog
9:15 AM 24.8 °F 17.1 °F 23.0 °F 93% 30.12 in 0.4 mi ESE 6.7 mph - N/A Fog Light Freezing Fog
9:45 AM 24.8 °F 19.2 °F 23.0 °F 93% 30.15 in 0.4 mi ESE 4.5 mph - N/A Fog Light Freezing Fog
10:15 AM 24.8 °F 17.1 °F 23.0 °F 93% 30.12 in 0.4 mi SE 6.7 mph - N/A Fog Light Freezing Fog
10:45 AM 24.8 °F 17.1 °F 23.0 °F 93% 30.12 in 0.4 mi ESE 6.7 mph - N/A Fog Light Freezing Fog
11:15 AM 24.8 °F 19.2 °F 23.0 °F 93% 30.12 in 0.4 mi ESE 4.5 mph - N/A Fog Light Freezing Fog
11:45 AM - - - N/A% - 1.9 mi SE 4.5 mph - N/A Fog Light Freezing Fog
12:15 PM 26.6 °F 21.3 °F 24.8 °F 93% 30.09 in 0.5 mi ESE 4.5 mph - N/A Fog Light Freezing Fog
12:45 PM 26.6 °F 19.2 °F 24.8 °F 93% 30.09 in 0.5 mi SE 6.7 mph - N/A Fog Light Freezing Fog
1:15 PM 26.6 °F 21.3 °F 24.8 °F 93% 30.09 in 0.5 mi SE 4.5 mph - N/A Fog Light Freezing Fog
1:45 PM 26.6 °F 19.2 °F 26.6 °F 100% 30.09 in 0.5 mi SE 6.7 mph - N/A Fog Light Freezing Fog
2:15 PM 26.6 °F - 24.8 °F 93% 30.09 in 0.5 mi South 2.2 mph - N/A Fog Light Freezing Fog
2:45 PM - - - N/A% - 0.9 mi SE 4.5 mph - N/A Fog Light Freezing Fog
3:15 PM 26.6 °F 21.3 °F 26.6 °F 100% 30.06 in 0.5 mi SE 4.5 mph - N/A Fog Light Freezing Fog
3:45 PM 26.6 °F - 26.6 °F 100% 30.06 in 0.5 mi SE 2.2 mph - N/A Fog Light Freezing Fog
4:15 PM 26.6 °F 21.3 °F 26.6 °F 100% 30.06 in 0.4 mi ESE 4.5 mph - N/A Fog Light Freezing Fog
4:45 PM 26.6 °F 21.3 °F 26.6 °F 100% 30.06 in 0.4 mi ESE 4.5 mph - N/A Fog Light Freezing Fog
5:15 PM 26.6 °F - 26.6 °F 100% 30.06 in 0.4 mi SE 2.2 mph - N/A Fog Light Freezing Fog
5:45 PM - - - N/A% - 0.5 mi Variable 4.5 mph - N/A Fog Light Freezing Fog
6:15 PM 26.6 °F 21.3 °F 26.6 °F 100% 30.06 in 0.4 mi ESE 4.5 mph - N/A Fog Light Freezing Fog
6:45 PM 26.6 °F - 24.8 °F 93% 30.06 in 0.4 mi ESE 2.2 mph - N/A Fog Light Freezing Fog
7:15 PM 26.6 °F - 24.8 °F 93% 30.06 in 0.2 mi Calm Calm - N/A Fog Light Freezing Fog
7:45 PM 26.6 °F - 24.8 °F 93% 30.06 in 0.2 mi East 2.2 mph - N/A Fog Light Freezing Fog
8:15 PM 26.6 °F - 24.8 °F 93% 30.06 in 0.2 mi ESE 2.2 mph - N/A Fog Light Freezing Fog
8:45 PM - - - N/A% - 0.5 mi Variable 4.5 mph - N/A Fog Light Freezing Fog
9:15 PM 26.6 °F - 24.8 °F 93% 30.06 in 0.1 mi ESE 2.2 mph - N/A Fog Light Freezing Fog
9:45 PM 26.6 °F - 24.8 °F 93% 30.06 in 0.1 mi SE 2.2 mph - N/A Fog Light Freezing Fog
10:15 PM 26.6 °F - 24.8 °F 93% 30.06 in 0.1 mi SE 2.2 mph - N/A Fog Light Freezing Fog
10:45 PM 26.6 °F - 24.8 °F 93% 30.09 in 0.1 mi SE 2.2 mph - N/A Fog Light Freezing Fog
11:15 PM 24.8 °F - 24.8 °F 100% 30.09 in 0.1 mi ESE 2.2 mph - N/A Fog Light Freezing Fog
11:45 PM - - - N/A% - 0.5 mi North - - N/A Fog Light Freezing Fog